sat.trackr.live / text

‹ back to catalog

QIANFAN-169

NORAD 69386 · 2026-124E

PAYLOAD ACTIVE UNKNOWN

§ Identity

Operator
Country
PRC
Launch date
2026-06-04
Launch site
TAISC
Launch vehicle
Mass (kg)
RCS (m²)

External: N2YO · Heavens-Above · Gunter

§ Orbital elements

Epoch: 2026-09-20T04:09:46.408320Z

Period
106.59 min
Inclination
89.0057°
Eccentricity
0.0001837
Mean motion
13.51023708 rev/d
Perigee alt
1,067.1 km
Apogee alt
1,069.9 km
Semi-major
7,446.6 km
B*
1.5200e-4
RAAN
352.0520°
Arg perigee
100.5841°
Mean anomaly
259.5517°
Rev number
1,486

§ Raw data

QIANFAN-1691 69386U 26124E   26263.17345380  .00000110  00000+0  15200-3 0  99992 69386  89.0057 352.0520 0001837 100.5841 259.5517 13.51023708 14861

JSON: /api/v1/satellites/69386 · /tle

For live sub-satellite position, see the globe view (requires WebGL).

§ Visibility from observer

Set your observer location to see the next 7 days of passes ≥ 10°. The values pass through the URL so the page stays shareable.

No JS? Fill the form by hand. The geolocation button needs JavaScript.